White Mountain, AK

9:11 PM AKDT on April 28, 2017 (GMT -0800)
White Mountain

Weather History for PAWM - April, 2013

Change the Weather History Date:

Tuesday, April 2, 2013

  Actual Average (PAOM) Record (PAOM)
Temperature  
Mean Temperature 22 °F -  
Max Temperature 35 °F 22 °F 42 °F (1938)
Min Temperature 10 °F 4 °F -26 °F (1949)
Degree Days  
Heating Degree Days 42    
Moisture  
Dew Point 14 °F    
Average Humidity 71    
Maximum Humidity 85    
Minimum Humidity 44    
Precipitation  
Precipitation 0.00 in - - ()
Sea Level Pressure  
Sea Level Pressure 30.17 in    
Wind  
Wind Speed 7 mph (North)    
Max Wind Speed 10 mph    
Max Gust Speed -    
Visibility 10 miles    
Events      
Averages and records for this station are not official NWS values.
T = Trace of Precipitation, MM = Missing Value Source: NWS Daily Summary

Daily Weather History Graph

Daily Weather History Graph

Search for Another Location

Airport or City:

Trip Planner

Search our weather history database for the weather conditions in past years. The results will help you decide how hot, cold, wet, or windy it might be!

Date:

Astronomy

Apr. 02, 2013 Rise Set
Actual Time 8:05 AM AKDT 9:50 PM AKDT
Civil Twilight 7:13 AM AKDT 10:42 PM AKDT
Nautical Twilight 6:06 AM AKDT 11:51 PM AKDT
Astronomical Twilight 4:32 AM AKDT 1:29 AM AKDT
Moon 5:45 AM AKDT (4/2) 11:32 AM AKDT (4/2)
Length of Visible Light 15h 29m
Length of Day
13h 45m
Waning Gibbous, 54% of the Moon is Illuminated
Apr 2
Waning Gibbous
Apr 2
Last Quarter
Apr 10
New
Apr 18
First Quarter
Apr 25
Full

Hourly Weather History & Observations

Time (AKDT) Temp. Windchill Dew Point Humidity Pressure Visibility Wind Dir Wind Speed Gust Speed Precip Events Conditions
12:58 AM 14.0 °F 2.9 °F 9.0 °F 80% 30.16 in 10.0 mi North 8.1 mph - N/A   Clear
1:58 AM 14.0 °F 2.0 °F 9.0 °F 80% 30.16 in 10.0 mi North 9.2 mph - N/A   Clear
2:58 AM 15.1 °F 4.2 °F 9.0 °F 77% 30.17 in 10.0 mi North 8.1 mph - N/A   Clear
3:58 AM 14.0 °F 3.9 °F 8.1 °F 77% 30.17 in 10.0 mi North 6.9 mph - N/A   Clear
4:58 AM 14.0 °F 6.5 °F 8.1 °F 77% 30.17 in 10.0 mi North 4.6 mph - N/A   Clear
5:25 AM 15.8 °F 4.2 °F 8.6 °F 73% 30.14 in 10.0 mi North 9.2 mph - N/A   Mostly Cloudy
5:58 AM 15.1 °F 4.2 °F 9.0 °F 77% 30.17 in 10.0 mi North 8.1 mph - N/A   Overcast
6:58 AM 12.9 °F 2.6 °F 8.1 °F 81% 30.17 in 10.0 mi North 6.9 mph - N/A   Overcast
7:58 AM 12.0 °F 0.5 °F 6.1 °F 77% 30.16 in 10.0 mi North 8.1 mph - N/A   Mostly Cloudy
8:10 AM 10.4 °F -1.5 °F 6.8 °F 85% 30.13 in 10.0 mi North 8.1 mph - N/A   Scattered Clouds
8:58 AM 12.0 °F -1.3 °F 8.1 °F 84% 30.17 in 10.0 mi North 10.4 mph - N/A   Clear
9:58 AM 18.0 °F - 10.9 °F 74% 30.17 in 9.0 mi Calm Calm - N/A   Clear
10:58 AM 19.9 °F 12.1 °F 10.9 °F 68% 30.17 in 10.0 mi North 5.8 mph - N/A   Clear
11:58 AM 28.0 °F 22.8 °F 14.0 °F 56% 30.17 in 10.0 mi North 4.6 mph - N/A   Clear
12:58 PM 32.0 °F 26.4 °F 16.0 °F 52% 30.18 in 9.0 mi NNW 5.8 mph - N/A   Clear
1:58 PM 35.1 °F 32.2 °F 15.1 °F 44% 30.18 in 9.0 mi SSW 3.5 mph - N/A   Scattered Clouds
2:58 PM 33.1 °F 27.7 °F 19.9 °F 59% 30.18 in 9.0 mi SSE 5.8 mph - N/A   Mostly Cloudy
3:58 PM 32.0 °F - 24.1 °F 73% 30.17 in 9.0 mi Calm Calm - 0.00 in   Clear
4:58 PM 33.1 °F 30.0 °F 24.1 °F 70% 30.16 in 9.0 mi ENE 3.5 mph - N/A   Clear
5:58 PM 33.1 °F 30.0 °F 23.0 °F 66% 30.16 in 10.0 mi Variable 3.5 mph - N/A   Clear
6:58 PM 33.1 °F 30.0 °F 23.0 °F 66% 30.16 in 9.0 mi SSW 3.5 mph - N/A   Clear
7:58 PM 33.1 °F 27.7 °F 21.9 °F 64% 30.16 in 10.0 mi WNW 5.8 mph - N/A   Overcast
8:58 PM 30.9 °F 26.2 °F 21.0 °F 67% 30.16 in 10.0 mi North 4.6 mph - N/A   Clear
9:58 PM 28.9 °F 21.9 °F 19.9 °F 69% 30.16 in 10.0 mi NNE 6.9 mph - N/A   Clear
10:58 PM 25.0 °F 16.3 °F 18.0 °F 75% 30.17 in 10.0 mi North 8.1 mph - N/A   Scattered Clouds
11:58 PM 23.0 °F 13.9 °F 17.1 °F 78% 30.17 in 10.0 mi North 8.1 mph - N/A   Overcast